Time,TemperatureF,DewpointF,PressureIn,WindDirection,WindDirectionDegrees,WindSpeedMPH,WindSpeedGustMPH,Humidity,HourlyPrecipIn,Conditions,Clouds,dailyrainin,SolarRadiationWatts/m^2,SoftwareType,DateUTC
2013-04-16 00:00:00,33.7,29.4,30.05,West,273,11.0,16.0,84,0.00,,---,0.00,0.00,VWS V14.01,2013-04-16 05:00:00,
2013-04-16 00:05:00,33.6,29.3,30.05,West,268,11.0,15.0,84,0.00,,---,0.00,0.00,VWS V14.01,2013-04-16 05:05:00,
2013-04-16 00:10:00,33.5,28.9,30.06,West,277,10.0,16.0,83,0.00,,---,0.00,0.00,VWS V14.01,2013-04-16 05:10:00,
2013-04-16 00:15:00,33.4,28.8,30.05,West,277,8.0,16.0,83,0.00,,---,0.00,0.00,VWS V14.01,2013-04-16 05:15:00,
2013-04-16 00:20:00,33.3,28.7,30.06,West,272,13.0,14.0,83,0.00,,---,0.00,0.00,VWS V14.01,2013-04-16 05:20:00,
2013-04-16 00:25:00,33.3,28.7,30.06,West,280,13.0,16.0,83,0.00,,---,0.00,0.00,VWS V14.01,2013-04-16 05:25:00,
2013-04-16 00:30:00,33.3,28.7,30.05,WNW,287,11.0,16.0,83,0.00,,---,0.00,0.00,VWS V14.01,2013-04-16 05:30:00,
2013-04-16 00:35:00,33.3,28.4,30.06,WNW,292,12.0,15.0,82,0.00,,---,0.00,0.00,VWS V14.01,2013-04-16 05:35:00,
2013-04-16 00:40:00,33.3,28.4,30.05,WNW,284,12.0,15.0,82,0.00,,---,0.00,0.00,VWS V14.01,2013-04-16 05:40:00,
2013-04-16 00:45:00,33.2,28.3,30.05,WNW,284,11.0,15.0,82,0.00,,---,0.00,0.00,VWS V14.01,2013-04-16 05:45:00,
2013-04-16 00:50:00,33.0,28.1,30.05,WNW,291,9.0,14.0,82,0.00,,---,0.00,0.00,VWS V14.01,2013-04-16 05:50:00,
2013-04-16 00:55:00,32.8,27.9,30.06,WNW,285,15.0,15.0,82,0.00,,---,0.00,0.00,VWS V14.01,2013-04-16 05:55:00,
2013-04-16 01:00:00,32.8,27.9,30.07,West,281,12.0,16.0,82,0.00,,---,0.00,0.00,VWS V14.01,2013-04-16 06:00:00,
2013-04-16 01:05:00,32.7,27.8,30.07,WNW,290,14.0,15.0,82,0.00,,---,0.00,0.00,VWS V14.01,2013-04-16 06:05:00,
2013-04-16 01:10:00,32.6,27.7,30.06,WNW,296,12.0,15.0,82,0.00,,---,0.00,0.00,VWS V14.01,2013-04-16 06:10:00,
2013-04-16 01:15:00,32.6,27.7,30.06,WNW,294,15.0,15.0,82,0.00,,---,0.00,0.00,VWS V14.01,2013-04-16 06:15:00,
2013-04-16 01:20:00,32.5,27.6,30.07,WNW,301,12.0,15.0,82,0.00,,---,0.00,0.00,VWS V14.01,2013-04-16 06:20:00,
2013-04-16 01:25:00,32.5,27.6,30.07,WNW,290,11.0,15.0,82,0.00,,---,0.00,0.00,VWS V14.01,2013-04-16 06:25:00,
2013-04-16 01:30:00,32.4,27.5,30.07,WNW,290,9.0,15.0,82,0.00,,---,0.00,0.00,VWS V14.01,2013-04-16 06:30:00,
2013-04-16 01:35:00,32.3,27.1,30.07,WNW,296,6.0,11.0,81,0.00,,---,0.00,0.00,VWS V14.01,2013-04-16 06:35:00,
2013-04-16 01:40:00,32.1,27.2,30.06,WNW,293,10.0,12.0,82,0.00,,---,0.00,0.00,VWS V14.01,2013-04-16 06:40:00,
2013-04-16 01:45:00,32.0,27.1,30.07,WNW,295,14.0,14.0,82,0.00,,---,0.00,0.00,VWS V14.01,2013-04-16 06:45:00,
2013-04-16 01:50:00,31.9,27.0,30.07,WNW,298,9.0,14.0,82,0.00,,---,0.00,0.00,VWS V14.01,2013-04-16 06:50:00,
2013-04-16 01:55:00,31.7,26.8,30.07,WNW,296,9.0,14.0,82,0.00,,---,0.00,0.00,VWS V14.01,2013-04-16 06:55:00,
2013-04-16 02:00:00,31.6,26.8,30.07,WNW,299,6.0,14.0,82,0.00,,---,0.00,0.00,VWS V14.01,2013-04-16 07:00:00,
2013-04-16 02:05:00,31.6,27.0,30.07,WNW,298,9.0,11.0,83,0.00,,---,0.00,0.00,VWS V14.01,2013-04-16 07:05:00,
2013-04-16 02:10:00,31.5,26.9,30.07,WNW,298,9.0,13.0,83,0.00,,---,0.00,0.00,VWS V14.01,2013-04-16 07:10:00,
2013-04-16 02:15:00,31.3,26.8,30.07,WNW,301,10.0,13.0,83,0.00,,---,0.00,0.00,VWS V14.01,2013-04-16 07:15:00,
2013-04-16 02:20:00,31.2,26.6,30.07,WNW,292,9.0,10.0,83,0.00,,---,0.00,0.00,VWS V14.01,2013-04-16 07:20:00,
2013-04-16 02:25:00,31.1,26.8,30.07,WNW,288,7.0,12.0,84,0.00,,---,0.00,0.00,VWS V14.01,2013-04-16 07:25:00,
2013-04-16 02:30:00,31.1,26.8,30.08,WNW,284,11.0,13.0,84,0.00,,---,0.00,0.00,VWS V14.01,2013-04-16 07:30:00,
2013-04-16 02:35:00,31.1,26.5,30.08,West,281,11.0,13.0,83,0.00,,---,0.00,0.00,VWS V14.01,2013-04-16 07:35:00,
2013-04-16 02:40:00,31.2,26.6,30.08,WNW,284,10.0,13.0,83,0.00,,---,0.00,0.00,VWS V14.01,2013-04-16 07:40:00,
2013-04-16 02:45:00,31.2,26.6,30.08,WNW,284,9.0,14.0,83,0.00,,---,0.00,0.00,VWS V14.01,2013-04-16 07:45:00,
2013-04-16 02:50:00,31.1,26.5,30.08,WNW,290,10.0,12.0,83,0.00,,---,0.00,0.00,VWS V14.01,2013-04-16 07:50:00,
2013-04-16 02:55:00,31.0,26.5,30.08,WNW,297,11.0,12.0,83,0.00,,---,0.00,0.00,VWS V14.01,2013-04-16 07:55:00,
2013-04-16 03:00:00,30.9,26.4,30.09,West,281,11.0,15.0,83,0.00,,---,0.00,0.00,VWS V14.01,2013-04-16 08:00:00,
2013-04-16 03:05:00,30.9,26.4,30.08,WNW,292,9.0,13.0,83,0.00,,---,0.00,0.00,VWS V14.01,2013-04-16 08:05:00,
2013-04-16 03:10:00,30.8,26.3,30.08,WNW,288,6.0,13.0,83,0.00,,---,0.00,0.00,VWS V14.01,2013-04-16 08:10:00,
2013-04-16 03:15:00,30.8,26.3,30.08,WNW,294,10.0,13.0,83,0.00,,---,0.00,0.00,VWS V14.01,2013-04-16 08:15:00,
2013-04-16 03:20:00,30.7,26.2,30.09,WNW,288,12.0,12.0,83,0.00,,---,0.00,0.00,VWS V14.01,2013-04-16 08:20:00,
2013-04-16 03:25:00,30.7,26.2,30.08,WNW,283,11.0,14.0,83,0.00,,---,0.00,0.00,VWS V14.01,2013-04-16 08:25:00,
2013-04-16 03:30:00,30.7,26.2,30.10,WNW,284,12.0,14.0,83,0.00,,---,0.00,0.00,VWS V14.01,2013-04-16 08:30:00,
2013-04-16 03:35:00,30.7,26.5,30.09,WNW,283,11.0,14.0,84,0.00,,---,0.00,0.00,VWS V14.01,2013-04-16 08:35:00,
2013-04-16 03:40:00,30.6,26.4,30.10,WNW,292,11.0,14.0,84,0.00,,---,0.00,0.00,VWS V14.01,2013-04-16 08:40:00,
2013-04-16 03:45:00,30.6,26.4,30.10,West,280,10.0,14.0,84,0.00,,---,0.00,0.00,VWS V14.01,2013-04-16 08:45:00,
2013-04-16 03:50:00,30.6,26.4,30.10,West,276,11.0,13.0,84,0.00,,---,0.00,0.00,VWS V14.01,2013-04-16 08:50:00,
2013-04-16 03:55:00,30.5,26.2,30.10,West,273,9.0,13.0,84,0.00,,---,0.00,0.00,VWS V14.01,2013-04-16 08:55:00,
2013-04-16 04:00:00,30.6,26.4,30.10,West,269,11.0,13.0,84,0.00,,---,0.00,0.00,VWS V14.01,2013-04-16 09:00:00,
2013-04-16 04:05:00,30.5,26.2,30.10,West,269,8.0,12.0,84,0.00,,---,0.00,0.00,VWS V14.01,2013-04-16 09:05:00,
2013-04-16 04:10:00,30.3,26.3,30.10,West,269,12.0,13.0,85,0.00,,---,0.00,0.00,VWS V14.01,2013-04-16 09:10:00,
2013-04-16 04:15:00,30.3,26.3,30.11,West,271,12.0,14.0,85,0.00,,---,0.00,0.00,VWS V14.01,2013-04-16 09:15:00,
2013-04-16 04:20:00,30.3,26.3,30.10,WNW,288,11.0,11.0,85,0.00,,---,0.00,0.00,VWS V14.01,2013-04-16 09:20:00,
2013-04-16 04:25:00,30.2,26.0,30.10,WNW,299,9.0,13.0,84,0.00,,---,0.00,0.00,VWS V14.01,2013-04-16 09:25:00,
2013-04-16 04:30:00,30.2,26.0,30.10,WNW,290,10.0,13.0,84,0.00,,---,0.00,0.00,VWS V14.01,2013-04-16 09:30:00,
2013-04-16 04:35:00,30.1,25.9,30.10,WNW,285,10.0,13.0,84,0.00,,---,0.00,0.00,VWS V14.01,2013-04-16 09:35:00,
2013-04-16 04:40:00,30.0,26.0,30.10,WNW,294,12.0,13.0,85,0.00,,---,0.00,0.00,VWS V14.01,2013-04-16 09:40:00,
2013-04-16 04:45:00,29.9,25.7,30.10,WNW,286,12.0,13.0,84,0.00,,---,0.00,0.00,VWS V14.01,2013-04-16 09:45:00,
2013-04-16 04:50:00,29.9,26.0,30.11,WNW,288,10.0,14.0,85,0.00,,---,0.00,0.00,VWS V14.01,2013-04-16 09:50:00,
2013-04-16 04:55:00,29.8,25.9,30.12,West,276,9.0,14.0,85,0.00,,---,0.00,0.00,VWS V14.01,2013-04-16 09:55:00,
2013-04-16 05:00:00,29.8,25.9,30.12,WNW,292,11.0,14.0,85,0.00,,---,0.00,0.00,VWS V14.01,2013-04-16 10:00:00,
2013-04-16 05:05:00,29.9,26.0,30.12,WNW,290,10.0,11.0,85,0.00,,---,0.00,0.00,VWS V14.01,2013-04-16 10:05:00,
2013-04-16 05:10:00,29.8,25.9,30.12,WNW,286,9.0,14.0,85,0.00,,---,0.00,0.00,VWS V14.01,2013-04-16 10:10:00,
2013-04-16 05:15:00,29.9,26.0,30.12,WNW,290,10.0,15.0,85,0.00,,---,0.00,0.00,VWS V14.01,2013-04-16 10:15:00,
2013-04-16 05:20:00,29.9,26.0,30.13,WNW,292,12.0,13.0,85,0.00,,---,0.00,0.00,VWS V14.01,2013-04-16 10:20:00,
2013-04-16 05:25:00,29.9,25.7,30.14,WNW,294,15.0,15.0,84,0.00,,---,0.00,0.00,VWS V14.01,2013-04-16 10:25:00,
2013-04-16 05:30:00,29.9,25.7,30.14,WNW,290,10.0,15.0,84,0.00,,---,0.00,0.00,VWS V14.01,2013-04-16 10:30:00,
2013-04-16 05:35:00,29.9,25.7,30.14,WNW,290,12.0,15.0,84,0.00,,---,0.00,0.00,VWS V14.01,2013-04-16 10:35:00,
2013-04-16 05:40:00,29.8,25.6,30.14,NW,306,12.0,15.0,84,0.00,,---,0.00,0.00,VWS V14.01,2013-04-16 10:40:00,
2013-04-16 05:45:00,29.8,25.6,30.14,WNW,288,9.0,15.0,84,0.00,,---,0.00,0.00,VWS V14.01,2013-04-16 10:45:00,
2013-04-16 05:50:00,29.7,25.5,30.14,WNW,293,7.0,14.0,84,0.00,,---,0.00,0.00,VWS V14.01,2013-04-16 10:50:00,
2013-04-16 05:55:00,29.6,25.4,30.14,WNW,290,9.0,14.0,84,0.00,,---,0.00,0.00,VWS V14.01,2013-04-16 10:55:00,
2013-04-16 06:00:00,29.5,25.3,30.16,WNW,288,12.0,14.0,84,0.00,,---,0.00,0.00,VWS V14.01,2013-04-16 11:00:00,
2013-04-16 06:05:00,29.5,25.3,30.15,WNW,290,9.0,12.0,84,0.00,,---,0.00,0.00,VWS V14.01,2013-04-16 11:05:00,
2013-04-16 06:10:00,29.4,25.5,30.16,WNW,291,11.0,14.0,85,0.00,,---,0.00,0.00,VWS V14.01,2013-04-16 11:10:00,
2013-04-16 06:15:00,29.4,25.5,30.16,West,273,11.0,14.0,85,0.00,,---,0.00,0.00,VWS V14.01,2013-04-16 11:15:00,
2013-04-16 06:20:00,29.3,25.4,30.16,WNW,288,9.0,12.0,85,0.00,,---,0.00,0.00,VWS V14.01,2013-04-16 11:20:00,
2013-04-16 06:25:00,29.3,25.4,30.17,WNW,285,9.0,13.0,85,0.00,,---,0.00,0.00,VWS V14.01,2013-04-16 11:25:00,
2013-04-16 06:30:00,29.3,25.4,30.17,WNW,290,7.0,13.0,85,0.00,,---,0.00,0.00,VWS V14.01,2013-04-16 11:30:00,
2013-04-16 06:35:00,29.3,25.4,30.17,WNW,295,8.0,13.0,85,0.00,,---,0.00,5.00,VWS V14.01,2013-04-16 11:35:00,
2013-04-16 06:40:00,29.3,25.4,30.17,WNW,294,7.0,13.0,85,0.00,,---,0.00,7.00,VWS V14.01,2013-04-16 11:40:00,
2013-04-16 06:45:00,29.3,25.4,30.17,WNW,288,11.0,13.0,85,0.00,,---,0.00,14.00,VWS V14.01,2013-04-16 11:45:00,
2013-04-16 06:50:00,29.3,25.4,30.17,WNW,286,6.0,7.0,85,0.00,,---,0.00,19.00,VWS V14.01,2013-04-16 11:50:00,
2013-04-16 06:55:00,29.2,25.3,30.17,WNW,290,9.0,12.0,85,0.00,,---,0.00,33.00,VWS V14.01,2013-04-16 11:55:00,
2013-04-16 07:00:00,29.3,25.4,30.17,WNW,292,7.0,12.0,85,0.00,,---,0.00,46.00,VWS V14.01,2013-04-16 12:00:00,
2013-04-16 07:05:00,29.3,25.4,30.17,WNW,301,9.0,11.0,85,0.00,,---,0.00,42.00,VWS V14.01,2013-04-16 12:05:00,
2013-04-16 07:10:00,29.3,25.6,30.17,WNW,296,9.0,11.0,86,0.00,,---,0.00,35.00,VWS V14.01,2013-04-16 12:10:00,
2013-04-16 07:15:00,29.2,25.3,30.17,WNW,299,7.0,11.0,85,0.00,,---,0.00,56.00,VWS V14.01,2013-04-16 12:15:00,
2013-04-16 07:20:00,29.2,25.5,30.17,WNW,302,9.0,10.0,86,0.00,,---,0.00,67.00,VWS V14.01,2013-04-16 12:20:00,
2013-04-16 07:25:00,29.2,25.5,30.18,WNW,296,9.0,12.0,86,0.00,,---,0.00,95.00,VWS V14.01,2013-04-16 12:25:00,
2013-04-16 07:30:00,29.2,25.5,30.18,WNW,300,11.0,13.0,86,0.00,,---,0.00,130.00,VWS V14.01,2013-04-16 12:30:00,
2013-04-16 07:35:00,29.4,25.7,30.19,WNW,296,9.0,12.0,86,0.00,,---,0.00,153.00,VWS V14.01,2013-04-16 12:35:00,
2013-04-16 07:40:00,29.6,25.9,30.19,WNW,289,4.0,12.0,86,0.00,,---,0.00,181.00,VWS V14.01,2013-04-16 12:40:00,
2013-04-16 07:45:00,29.7,26.0,30.19,WNW,284,9.0,12.0,86,0.00,,---,0.00,179.00,VWS V14.01,2013-04-16 12:45:00,
2013-04-16 07:50:00,29.8,25.9,30.20,WNW,286,6.0,11.0,85,0.00,,---,0.00,186.00,VWS V14.01,2013-04-16 12:50:00,
2013-04-16 07:55:00,29.9,26.0,30.21,WNW,287,9.0,11.0,85,0.00,,---,0.00,239.00,VWS V14.01,2013-04-16 12:55:00,
2013-04-16 08:00:00,30.0,26.0,30.20,WNW,294,5.0,13.0,85,0.00,,---,0.00,279.00,VWS V14.01,2013-04-16 13:00:00,
2013-04-16 08:05:00,30.2,26.2,30.22,WNW,299,6.0,12.0,85,0.00,,---,0.00,183.00,VWS V14.01,2013-04-16 13:05:00,
2013-04-16 08:10:00,30.2,26.2,30.22,WNW,293,8.0,13.0,85,0.00,,---,0.00,246.00,VWS V14.01,2013-04-16 13:10:00,
2013-04-16 08:15:00,30.3,26.3,30.22,WNW,299,6.0,13.0,85,0.00,,---,0.00,188.00,VWS V14.01,2013-04-16 13:15:00,
2013-04-16 08:20:00,30.4,26.1,30.22,WNW,288,11.0,11.0,84,0.00,,---,0.00,139.00,VWS V14.01,2013-04-16 13:20:00,
2013-04-16 08:25:00,30.4,26.1,30.22,NW,304,8.0,13.0,84,0.00,,---,0.00,279.00,VWS V14.01,2013-04-16 13:25:00,
2013-04-16 08:30:00,30.6,26.4,30.22,NW,309,9.0,14.0,84,0.00,,---,0.00,179.00,VWS V14.01,2013-04-16 13:30:00,
2013-04-16 08:35:00,30.7,26.5,30.22,WNW,303,12.0,14.0,84,0.00,,---,0.00,250.00,VWS V14.01,2013-04-16 13:35:00,
2013-04-16 08:40:00,30.7,26.5,30.23,NW,310,10.0,17.0,84,0.00,,---,0.00,221.00,VWS V14.01,2013-04-16 13:40:00,
2013-04-16 08:45:00,30.9,26.6,30.23,NW,311,11.0,17.0,84,0.00,,---,0.00,323.00,VWS V14.01,2013-04-16 13:45:00,
2013-04-16 08:50:00,31.1,26.8,30.24,NW,306,12.0,16.0,84,0.00,,---,0.00,396.00,VWS V14.01,2013-04-16 13:50:00,
2013-04-16 08:55:00,31.2,26.6,30.24,NW,311,13.0,16.0,83,0.00,,---,0.00,404.00,VWS V14.01,2013-04-16 13:55:00,
2013-04-16 09:00:00,31.3,26.8,30.24,WNW,300,12.0,16.0,83,0.00,,---,0.00,432.00,VWS V14.01,2013-04-16 14:00:00,
2013-04-16 09:05:00,31.4,26.8,30.24,NW,306,14.0,16.0,83,0.00,,---,0.00,443.00,VWS V14.01,2013-04-16 14:05:00,
2013-04-16 09:10:00,31.4,26.8,30.24,NW,318,13.0,16.0,83,0.00,,---,0.00,455.00,VWS V14.01,2013-04-16 14:10:00,
2013-04-16 09:15:00,31.5,26.9,30.24,NW,306,14.0,16.0,83,0.00,,---,0.00,346.00,VWS V14.01,2013-04-16 14:15:00,
2013-04-16 09:20:00,31.5,26.9,30.24,WNW,296,12.0,16.0,83,0.00,,---,0.00,461.00,VWS V14.01,2013-04-16 14:20:00,
2013-04-16 09:25:00,31.6,27.0,30.24,NW,307,13.0,16.0,83,0.00,,---,0.00,345.00,VWS V14.01,2013-04-16 14:25:00,
2013-04-16 09:31:00,31.5,26.6,30.24,NW,306,11.0,19.0,82,0.00,,---,0.00,418.00,VWS V14.01,2013-04-16 14:31:00,
2013-04-16 09:35:00,31.7,27.1,30.24,WNW,303,13.0,15.0,83,0.00,,---,0.00,503.00,VWS V14.01,2013-04-16 14:35:00,
2013-04-16 09:41:00,32.0,27.4,30.25,NW,314,17.0,17.0,83,0.00,,---,0.00,538.00,VWS V14.01,2013-04-16 14:41:00,
2013-04-16 09:45:00,32.4,27.8,30.25,NW,317,12.0,17.0,83,0.00,,---,0.00,613.00,VWS V14.01,2013-04-16 14:45:00,
2013-04-16 09:51:00,32.6,27.7,30.25,NW,314,12.0,17.0,82,0.00,,---,0.00,388.00,VWS V14.01,2013-04-16 14:51:00,
2013-04-16 09:56:00,32.7,27.5,30.25,NW,310,12.0,17.0,81,0.00,,---,0.00,290.00,VWS V14.01,2013-04-16 14:56:00,
2013-04-16 10:01:00,32.7,27.5,30.25,NW,315,10.0,17.0,81,0.00,,---,0.00,346.00,VWS V14.01,2013-04-16 15:01:00,
2013-04-16 10:05:00,33.0,27.8,30.25,NW,317,15.0,17.0,81,0.00,,---,0.00,756.00,VWS V14.01,2013-04-16 15:05:00,
2013-04-16 10:11:00,33.1,27.9,30.26,NW,317,14.0,17.0,81,0.00,,---,0.00,842.00,VWS V14.01,2013-04-16 15:11:00,
2013-04-16 10:16:00,33.3,27.8,30.26,WNW,296,16.0,19.0,80,0.00,,---,0.00,548.00,VWS V14.01,2013-04-16 15:16:00,
2013-04-16 10:21:00,33.4,27.9,30.26,NNW,334,11.0,17.0,80,0.00,,---,0.00,547.00,VWS V14.01,2013-04-16 15:21:00,
2013-04-16 10:26:00,33.5,28.3,30.26,NNW,338,13.0,19.0,81,0.00,,---,0.00,909.00,VWS V14.01,2013-04-16 15:26:00,
2013-04-16 10:31:00,33.7,27.9,30.26,NW,315,15.0,19.0,79,0.00,,---,0.00,782.00,VWS V14.01,2013-04-16 15:31:00,
2013-04-16 10:36:00,33.6,27.8,30.26,NW,314,13.0,18.0,79,0.00,,---,0.00,339.00,VWS V14.01,2013-04-16 15:36:00,
2013-04-16 10:41:00,33.9,28.4,30.27,NW,313,12.0,18.0,80,0.00,,---,0.00,422.00,VWS V14.01,2013-04-16 15:41:00,
2013-04-16 10:46:00,34.0,27.9,30.27,NNW,331,13.0,18.0,78,0.00,,---,0.00,408.00,VWS V14.01,2013-04-16 15:46:00,
2013-04-16 10:51:00,34.1,28.3,30.26,NW,306,14.0,15.0,79,0.00,,---,0.00,418.00,VWS V14.01,2013-04-16 15:51:00,
2013-04-16 10:56:00,34.2,28.4,30.27,NW,308,12.0,17.0,79,0.00,,---,0.00,448.00,VWS V14.01,2013-04-16 15:56:00,
2013-04-16 11:01:00,34.1,28.0,30.27,NW,322,13.0,17.0,78,0.00,,---,0.00,476.00,VWS V14.01,2013-04-16 16:01:00,
2013-04-16 11:06:00,34.0,28.2,30.27,NW,321,10.0,12.0,79,0.00,,---,0.00,434.00,VWS V14.01,2013-04-16 16:06:00,
2013-04-16 11:11:00,34.0,28.5,30.28,NW,305,13.0,15.0,80,0.00,,---,0.00,475.00,VWS V14.01,2013-04-16 16:11:00,
2013-04-16 11:16:00,33.9,28.1,30.27,NW,308,10.0,17.0,79,0.00,,---,0.00,417.00,VWS V14.01,2013-04-16 16:16:00,
2013-04-16 11:21:00,34.1,28.9,30.27,NW,309,11.0,13.0,81,0.00,,---,0.00,499.00,VWS V14.01,2013-04-16 16:21:00,
2013-04-16 11:26:00,34.4,28.9,30.28,NW,313,12.0,15.0,80,0.00,,---,0.00,443.00,VWS V14.01,2013-04-16 16:26:00,
2013-04-16 11:31:00,34.3,28.5,30.28,WNW,286,13.0,15.0,79,0.00,,---,0.00,510.00,VWS V14.01,2013-04-16 16:31:00,
2013-04-16 11:36:00,34.4,28.9,30.28,NW,306,10.0,13.0,80,0.00,,---,0.00,439.00,VWS V14.01,2013-04-16 16:36:00,
2013-04-16 11:41:00,34.4,28.9,30.28,NNW,330,11.0,13.0,80,0.00,,---,0.00,404.00,VWS V14.01,2013-04-16 16:41:00,
2013-04-16 11:46:00,34.5,29.0,30.28,NW,305,13.0,13.0,80,0.00,,---,0.00,438.00,VWS V14.01,2013-04-16 16:46:00,
2013-04-16 11:51:00,34.6,28.8,30.28,WNW,283,7.0,12.0,79,0.00,,---,0.00,552.00,VWS V14.01,2013-04-16 16:51:00,
2013-04-16 11:56:00,34.4,28.6,30.29,WNW,291,6.0,13.0,79,0.00,,---,0.00,397.00,VWS V14.01,2013-04-16 16:56:00,
2013-04-16 12:01:00,34.5,28.7,30.29,WNW,302,9.0,13.0,79,0.00,,---,0.00,499.00,VWS V14.01,2013-04-16 17:01:00,
2013-04-16 12:06:00,34.8,28.6,30.29,NW,304,7.0,10.0,78,0.00,,---,0.00,401.00,VWS V14.01,2013-04-16 17:06:00,
2013-04-16 12:11:00,34.9,28.8,30.29,NNW,331,7.0,13.0,78,0.00,,---,0.00,366.00,VWS V14.01,2013-04-16 17:11:00,
2013-04-16 12:16:00,35.2,29.0,30.29,WNW,296,6.0,13.0,78,0.00,,---,0.00,1208.00,VWS V14.01,2013-04-16 17:16:00,
2013-04-16 12:21:00,35.4,29.5,30.29,WNW,286,9.0,11.0,79,0.00,,---,0.00,471.00,VWS V14.01,2013-04-16 17:21:00,
2013-04-16 12:26:00,35.4,28.9,30.29,NNW,335,1.0,11.0,77,0.00,,---,0.00,536.00,VWS V14.01,2013-04-16 17:26:00,
2013-04-16 12:31:00,35.6,29.1,30.29,WNW,300,4.0,12.0,77,0.00,,---,0.00,406.00,VWS V14.01,2013-04-16 17:31:00,
2013-04-16 12:36:00,35.5,29.0,30.29,WNW,298,7.0,11.0,77,0.00,,---,0.00,517.00,VWS V14.01,2013-04-16 17:36:00,
2013-04-16 12:41:00,35.6,29.7,30.29,WNW,295,11.0,11.0,79,0.00,,---,0.00,390.00,VWS V14.01,2013-04-16 17:41:00,
2013-04-16 12:46:00,36.0,29.8,30.28,WNW,291,7.0,11.0,78,0.00,,---,0.00,1239.00,VWS V14.01,2013-04-16 17:46:00,
2013-04-16 12:51:00,36.2,30.0,30.28,NW,321,5.0,13.0,78,0.00,,---,0.00,1148.00,VWS V14.01,2013-04-16 17:51:00,
2013-04-16 12:56:00,36.5,30.3,30.29,WNW,282,7.0,13.0,78,0.00,,---,0.00,420.00,VWS V14.01,2013-04-16 17:56:00,
2013-04-16 13:01:00,36.5,30.0,30.28,WNW,301,7.0,13.0,77,0.00,,---,0.00,366.00,VWS V14.01,2013-04-16 18:01:00,
2013-04-16 13:06:00,36.6,29.8,30.29,WNW,294,4.0,15.0,76,0.00,,---,0.00,1097.00,VWS V14.01,2013-04-16 18:06:00,
2013-04-16 13:11:00,36.9,30.4,30.28,NW,304,8.0,15.0,77,0.00,,---,0.00,1097.00,VWS V14.01,2013-04-16 18:11:00,
2013-04-16 13:16:00,37.1,30.6,30.28,NNW,333,9.0,15.0,77,0.00,,---,0.00,420.00,VWS V14.01,2013-04-16 18:16:00,
2013-04-16 13:21:00,37.4,31.2,30.28,NW,321,10.0,12.0,78,0.00,,---,0.00,1188.00,VWS V14.01,2013-04-16 18:21:00,
2013-04-16 13:26:00,37.5,31.0,30.28,WNW,300,7.0,12.0,77,0.00,,---,0.00,1188.00,VWS V14.01,2013-04-16 18:26:00,
2013-04-16 13:32:00,37.5,30.3,30.28,NW,307,7.0,12.0,75,0.00,,---,0.00,482.00,VWS V14.01,2013-04-16 18:32:00,
2013-04-16 13:36:00,37.4,30.2,30.28,WNW,295,8.0,11.0,75,0.00,,---,0.00,325.00,VWS V14.01,2013-04-16 18:36:00,
2013-04-16 13:42:00,37.6,31.1,30.28,NW,325,6.0,13.0,77,0.00,,---,0.00,1164.00,VWS V14.01,2013-04-16 18:42:00,
2013-04-16 13:47:00,37.7,30.5,30.28,NW,313,4.0,13.0,75,0.00,,---,0.00,499.00,VWS V14.01,2013-04-16 18:47:00,
2013-04-16 13:52:00,38.0,30.5,30.28,NNW,344,10.0,13.0,74,0.00,,---,0.00,1034.00,VWS V14.01,2013-04-16 18:52:00,
2013-04-16 13:57:00,38.2,30.0,30.28,North,355,7.0,13.0,72,0.00,,---,0.00,977.00,VWS V14.01,2013-04-16 18:57:00,
2013-04-16 14:02:00,38.2,30.3,30.28,NW,326,10.0,14.0,73,0.00,,---,0.00,336.00,VWS V14.01,2013-04-16 19:02:00,
2013-04-16 14:06:00,38.3,30.4,30.28,NNW,334,8.0,11.0,73,0.00,,---,0.00,1106.00,VWS V14.01,2013-04-16 19:06:00,
2013-04-16 14:12:00,38.7,31.5,30.28,NNW,330,11.0,14.0,75,0.00,,---,0.00,304.00,VWS V14.01,2013-04-16 19:12:00,
2013-04-16 14:16:00,39.0,30.8,30.28,NNW,331,5.0,14.0,72,0.00,,---,0.00,1162.00,VWS V14.01,2013-04-16 19:16:00,
2013-04-16 14:22:00,39.3,31.0,30.28,NW,318,11.0,14.0,72,0.00,,---,0.00,515.00,VWS V14.01,2013-04-16 19:22:00,
2013-04-16 14:27:00,39.2,31.0,30.28,NW,304,6.0,14.0,72,0.00,,---,0.00,1151.00,VWS V14.01,2013-04-16 19:27:00,
2013-04-16 14:32:00,39.3,30.7,30.28,NNW,330,3.0,14.0,71,0.00,,---,0.00,1153.00,VWS V14.01,2013-04-16 19:32:00,
2013-04-16 14:37:00,39.8,32.5,30.28,NNW,331,5.0,5.0,75,0.00,,---,0.00,471.00,VWS V14.01,2013-04-16 19:37:00,
2013-04-16 14:42:00,39.8,31.2,30.28,NNW,345,4.0,13.0,71,0.00,,---,0.00,401.00,VWS V14.01,2013-04-16 19:42:00,
2013-04-16 14:47:00,39.7,31.1,30.28,NNW,340,4.0,13.0,71,0.00,,---,0.00,487.00,VWS V14.01,2013-04-16 19:47:00,
2013-04-16 14:52:00,39.5,31.6,30.28,NW,317,7.0,7.0,73,0.00,,---,0.00,325.00,VWS V14.01,2013-04-16 19:52:00,
2013-04-16 14:57:00,39.3,31.4,30.28,NNW,336,5.0,11.0,73,0.00,,---,0.00,334.00,VWS V14.01,2013-04-16 19:57:00,
2013-04-16 15:02:00,39.3,31.7,30.28,NNW,336,3.0,11.0,74,0.00,,---,0.00,278.00,VWS V14.01,2013-04-16 20:02:00,
2013-04-16 15:07:00,39.3,32.0,30.28,NW,313,6.0,13.0,75,0.00,,---,0.00,295.00,VWS V14.01,2013-04-16 20:07:00,
2013-04-16 15:12:00,39.2,31.3,30.28,NNW,346,6.0,13.0,73,0.00,,---,0.00,350.00,VWS V14.01,2013-04-16 20:12:00,
2013-04-16 15:17:00,39.3,31.4,30.28,NNW,338,3.0,13.0,73,0.00,,---,0.00,311.00,VWS V14.01,2013-04-16 20:17:00,
2013-04-16 15:22:00,39.4,31.8,30.28,NW,321,5.0,12.0,74,0.00,,---,0.00,399.00,VWS V14.01,2013-04-16 20:22:00,
2013-04-16 15:27:00,39.7,31.8,30.27,NNW,345,3.0,12.0,73,0.00,,---,0.00,294.00,VWS V14.01,2013-04-16 20:27:00,
2013-04-16 15:32:00,39.7,31.8,30.27,NW,323,5.0,12.0,73,0.00,,---,0.00,267.00,VWS V14.01,2013-04-16 20:32:00,
2013-04-16 15:37:00,39.6,31.7,30.28,NNW,342,6.0,12.0,73,0.00,,---,0.00,241.00,VWS V14.01,2013-04-16 20:37:00,
2013-04-16 15:42:00,39.5,31.6,30.28,NNW,342,4.0,13.0,73,0.00,,---,0.00,279.00,VWS V14.01,2013-04-16 20:42:00,
2013-04-16 15:47:00,39.5,31.6,30.28,NNW,334,8.0,15.0,73,0.00,,---,0.00,311.00,VWS V14.01,2013-04-16 20:47:00,
2013-04-16 15:52:00,39.8,31.9,30.28,NNW,341,8.0,10.0,73,0.00,,---,0.00,287.00,VWS V14.01,2013-04-16 20:52:00,
2013-04-16 15:57:00,40.6,32.3,30.28,NNW,340,11.0,15.0,72,0.00,,---,0.00,944.00,VWS V14.01,2013-04-16 20:57:00,
2013-04-16 16:02:00,40.8,31.8,30.28,NW,325,8.0,15.0,70,0.00,,---,0.00,1002.00,VWS V14.01,2013-04-16 21:02:00,
2013-04-16 16:07:00,40.9,32.2,30.27,NW,313,10.0,13.0,71,0.00,,---,0.00,390.00,VWS V14.01,2013-04-16 21:07:00,
2013-04-16 16:12:00,40.8,32.5,30.27,NNW,344,5.0,13.0,72,0.00,,---,0.00,411.00,VWS V14.01,2013-04-16 21:12:00,
2013-04-16 16:17:00,40.6,32.0,30.28,NNW,327,10.0,15.0,71,0.00,,---,0.00,383.00,VWS V14.01,2013-04-16 21:17:00,
2013-04-16 16:22:00,40.4,31.8,30.28,North,350,8.0,13.0,71,0.00,,---,0.00,281.00,VWS V14.01,2013-04-16 21:22:00,
2013-04-16 16:27:00,40.2,31.9,30.28,NNW,336,10.0,15.0,72,0.00,,---,0.00,257.00,VWS V14.01,2013-04-16 21:27:00,
2013-04-16 16:32:00,39.9,31.3,30.28,NNW,346,10.0,15.0,71,0.00,,---,0.00,211.00,VWS V14.01,2013-04-16 21:32:00,
2013-04-16 16:37:00,39.6,31.0,30.28,NNW,327,8.0,11.0,71,0.00,,---,0.00,216.00,VWS V14.01,2013-04-16 21:37:00,
2013-04-16 16:42:00,39.5,31.2,30.28,NW,321,6.0,13.0,72,0.00,,---,0.00,253.00,VWS V14.01,2013-04-16 21:42:00,
2013-04-16 16:47:00,39.4,31.1,30.28,NNW,340,6.0,13.0,72,0.00,,---,0.00,244.00,VWS V14.01,2013-04-16 21:47:00,
2013-04-16 16:52:00,39.6,32.0,30.29,North,9,5.0,12.0,74,0.00,,---,0.00,211.00,VWS V14.01,2013-04-16 21:52:00,
2013-04-16 16:57:00,39.5,31.6,30.29,NNE,16,4.0,12.0,73,0.00,,---,0.00,179.00,VWS V14.01,2013-04-16 21:57:00,
2013-04-16 17:02:00,39.4,31.1,30.29,NNW,345,6.0,12.0,72,0.00,,---,0.00,146.00,VWS V14.01,2013-04-16 22:02:00,
2013-04-16 17:07:00,39.3,31.4,30.29,NNW,343,6.0,7.0,73,0.00,,---,0.00,118.00,VWS V14.01,2013-04-16 22:07:00,
2013-04-16 17:12:00,39.1,30.9,30.29,NNW,343,6.0,10.0,72,0.00,,---,0.00,183.00,VWS V14.01,2013-04-16 22:12:00,
2013-04-16 17:17:00,39.2,31.0,30.29,NNW,342,7.0,10.0,72,0.00,,---,0.00,167.00,VWS V14.01,2013-04-16 22:17:00,
2013-04-16 17:22:00,39.2,31.0,30.29,NNW,346,9.0,11.0,72,0.00,,---,0.00,155.00,VWS V14.01,2013-04-16 22:22:00,
2013-04-16 17:27:00,39.2,31.6,30.29,NNW,338,9.0,11.0,74,0.00,,---,0.00,156.00,VWS V14.01,2013-04-16 22:27:00,
2013-04-16 17:32:00,39.2,31.3,30.29,NNW,328,6.0,11.0,73,0.00,,---,0.00,241.00,VWS V14.01,2013-04-16 22:32:00,
2013-04-16 17:37:00,39.3,31.0,30.29,NNW,329,6.0,11.0,72,0.00,,---,0.00,156.00,VWS V14.01,2013-04-16 22:37:00,
2013-04-16 17:42:00,39.4,31.1,30.29,NNW,344,9.0,12.0,72,0.00,,---,0.00,148.00,VWS V14.01,2013-04-16 22:42:00,
2013-04-16 17:47:00,39.3,31.4,30.29,NNW,340,6.0,12.0,73,0.00,,---,0.00,213.00,VWS V14.01,2013-04-16 22:47:00,
2013-04-16 17:52:00,39.3,31.7,30.29,NNW,334,9.0,9.0,74,0.00,,---,0.00,137.00,VWS V14.01,2013-04-16 22:52:00,
2013-04-16 17:57:00,39.2,31.6,30.29,NNW,336,11.0,11.0,74,0.00,,---,0.00,193.00,VWS V14.01,2013-04-16 22:57:00,
2013-04-16 18:02:00,39.1,31.2,30.29,NNW,337,7.0,11.0,73,0.00,,---,0.00,165.00,VWS V14.01,2013-04-16 23:02:00,
2013-04-16 18:07:00,39.1,30.5,30.29,NNW,338,8.0,10.0,71,0.00,,---,0.00,190.00,VWS V14.01,2013-04-16 23:07:00,
2013-04-16 18:12:00,39.2,31.0,30.29,NNW,338,5.0,10.0,72,0.00,,---,0.00,202.00,VWS V14.01,2013-04-16 23:12:00,
2013-04-16 18:17:00,39.3,31.0,30.29,NNW,338,7.0,10.0,72,0.00,,---,0.00,267.00,VWS V14.01,2013-04-16 23:17:00,
2013-04-16 18:22:00,39.5,31.2,30.29,NNW,338,7.0,11.0,72,0.00,,---,0.00,341.00,VWS V14.01,2013-04-16 23:22:00,
2013-04-16 18:27:00,39.8,31.5,30.29,NNW,338,9.0,12.0,72,0.00,,---,0.00,253.00,VWS V14.01,2013-04-16 23:27:00,
2013-04-16 18:32:00,39.9,30.9,30.29,North,355,4.0,12.0,70,0.00,,---,0.00,193.00,VWS V14.01,2013-04-16 23:32:00,
2013-04-16 18:37:00,40.0,31.4,30.28,NNW,337,7.0,10.0,71,0.00,,---,0.00,176.00,VWS V14.01,2013-04-16 23:37:00,
2013-04-16 18:42:00,39.8,31.9,30.29,NNW,343,4.0,10.0,73,0.00,,---,0.00,107.00,VWS V14.01,2013-04-16 23:42:00,
2013-04-16 18:47:00,39.5,31.6,30.29,NNE,15,6.0,10.0,73,0.00,,---,0.00,97.00,VWS V14.01,2013-04-16 23:47:00,
2013-04-16 18:52:00,39.1,30.9,30.29,NNE,19,8.0,8.0,72,0.00,,---,0.00,76.00,VWS V14.01,2013-04-16 23:52:00,
2013-04-16 18:57:00,38.9,31.0,30.29,NNE,20,4.0,8.0,73,0.00,,---,0.00,88.00,VWS V14.01,2013-04-16 23:57:00,
2013-04-16 19:02:00,38.8,31.2,30.29,NNW,346,10.0,10.0,74,0.00,,---,0.00,104.00,VWS V14.01,2013-04-17 00:02:00,
2013-04-16 19:07:00,38.8,31.2,30.29,North,11,5.0,10.0,74,0.00,,---,0.00,74.00,VWS V14.01,2013-04-17 00:07:00,
2013-04-16 19:12:00,38.7,31.1,30.28,NNW,344,8.0,10.0,74,0.00,,---,0.00,58.00,VWS V14.01,2013-04-17 00:12:00,
2013-04-16 19:17:00,38.6,31.4,30.29,NNW,341,8.0,10.0,75,0.00,,---,0.00,40.00,VWS V14.01,2013-04-17 00:17:00,
2013-04-16 19:22:00,38.4,31.5,30.29,NNW,341,7.0,9.0,76,0.00,,---,0.00,32.00,VWS V14.01,2013-04-17 00:22:00,
2013-04-16 19:27:00,38.3,31.4,30.29,NNW,342,3.0,9.0,76,0.00,,---,0.00,26.00,VWS V14.01,2013-04-17 00:27:00,
2013-04-16 19:32:00,38.3,31.4,30.29,NNW,344,3.0,9.0,76,0.00,,---,0.00,26.00,VWS V14.01,2013-04-17 00:32:00,
2013-04-16 19:37:00,38.2,31.6,30.29,NNW,344,3.0,5.0,77,0.00,,---,0.00,25.00,VWS V14.01,2013-04-17 00:37:00,
2013-04-16 19:42:00,38.2,31.6,30.29,NNW,345,4.0,6.0,77,0.00,,---,0.00,23.00,VWS V14.01,2013-04-17 00:42:00,
2013-04-16 19:47:00,38.2,31.6,30.29,NNW,345,3.0,6.0,77,0.00,,---,0.00,18.00,VWS V14.01,2013-04-17 00:47:00,
2013-04-16 19:52:00,38.1,31.9,30.30,NNW,345,0.0,3.0,78,0.00,,---,0.00,11.00,VWS V14.01,2013-04-17 00:52:00,
2013-04-16 19:57:00,38.0,31.8,30.30,NNW,345,3.0,4.0,78,0.00,,---,0.00,7.00,VWS V14.01,2013-04-17 00:57:00,
2013-04-16 20:02:00,37.8,31.6,30.30,NNW,345,3.0,5.0,78,0.00,,---,0.00,5.00,VWS V14.01,2013-04-17 01:02:00,
2013-04-16 20:07:00,37.7,31.5,30.30,NNW,345,5.0,5.0,78,0.00,,---,0.00,0.00,VWS V14.01,2013-04-17 01:07:00,
2013-04-16 20:12:00,37.5,31.6,30.30,NNW,345,5.0,6.0,79,0.00,,---,0.00,0.00,VWS V14.01,2013-04-17 01:12:00,
2013-04-16 20:17:00,37.4,31.2,30.30,NNW,345,5.0,6.0,78,0.00,,---,0.00,0.00,VWS V14.01,2013-04-17 01:17:00,
2013-04-16 20:22:00,37.3,31.1,30.31,NNW,345,4.0,5.0,78,0.00,,---,0.00,0.00,VWS V14.01,2013-04-17 01:22:00,
2013-04-16 20:27:00,37.2,31.3,30.31,NNW,345,2.0,5.0,79,0.00,,---,0.00,0.00,VWS V14.01,2013-04-17 01:27:00,
2013-04-16 20:32:00,37.0,31.4,30.32,NNW,345,3.0,5.0,80,0.00,,---,0.00,0.00,VWS V14.01,2013-04-17 01:32:00,
2013-04-16 20:37:00,36.9,31.6,30.32,NNW,345,3.0,5.0,81,0.00,,---,0.00,0.00,VWS V14.01,2013-04-17 01:37:00,
2013-04-16 20:42:00,36.7,31.4,30.32,NNW,345,3.0,5.0,81,0.00,,---,0.00,0.00,VWS V14.01,2013-04-17 01:42:00,
2013-04-16 20:47:00,36.6,31.6,30.32,NNW,345,3.0,5.0,82,0.00,,---,0.00,0.00,VWS V14.01,2013-04-17 01:47:00,
2013-04-16 20:52:00,36.5,31.5,30.32,NNW,345,2.0,3.0,82,0.00,,---,0.00,0.00,VWS V14.01,2013-04-17 01:52:00,
2013-04-16 20:57:00,36.4,31.7,30.32,NNW,345,2.0,3.0,83,0.00,,---,0.00,0.00,VWS V14.01,2013-04-17 01:57:00,
2013-04-16 21:02:00,36.2,31.5,30.33,NNW,345,1.0,3.0,83,0.00,,---,0.00,0.00,VWS V14.01,2013-04-17 02:02:00,
2013-04-16 21:07:00,36.0,31.6,30.33,NNW,345,0.0,2.0,84,0.00,,---,0.00,0.00,VWS V14.01,2013-04-17 02:07:00,
2013-04-16 21:12:00,35.9,31.5,30.33,NNW,345,0.0,2.0,84,0.00,,---,0.00,0.00,VWS V14.01,2013-04-17 02:12:00,
2013-04-16 21:17:00,35.7,31.6,30.33,NNW,345,3.0,3.0,85,0.00,,---,0.00,0.00,VWS V14.01,2013-04-17 02:17:00,
2013-04-16 21:22:00,35.7,31.6,30.33,NNW,345,3.0,4.0,85,0.00,,---,0.00,0.00,VWS V14.01,2013-04-17 02:22:00,
2013-04-16 21:27:00,35.7,31.6,30.33,NNW,345,4.0,5.0,85,0.00,,---,0.00,0.00,VWS V14.01,2013-04-17 02:27:00,
2013-04-16 21:32:00,35.6,31.5,30.33,NNW,345,3.0,5.0,85,0.00,,---,0.00,0.00,VWS V14.01,2013-04-17 02:32:00,
2013-04-16 21:37:00,35.5,31.7,30.33,NNW,345,2.0,4.0,86,0.00,,---,0.00,0.00,VWS V14.01,2013-04-17 02:37:00,
2013-04-16 21:42:00,35.4,31.6,30.34,NNW,345,2.0,5.0,86,0.00,,---,0.00,0.00,VWS V14.01,2013-04-17 02:42:00,
2013-04-16 21:47:00,35.4,31.9,30.33,NNW,345,3.0,5.0,87,0.00,,---,0.00,0.00,VWS V14.01,2013-04-17 02:47:00,
2013-04-16 21:52:00,35.3,31.8,30.33,NNW,345,3.0,4.0,87,0.00,,---,0.00,0.00,VWS V14.01,2013-04-17 02:52:00,
2013-04-16 21:57:00,35.3,31.8,30.34,NNW,345,3.0,4.0,87,0.00,,---,0.00,0.00,VWS V14.01,2013-04-17 02:57:00,
2013-04-16 22:02:00,35.3,31.8,30.33,NNW,345,4.0,4.0,87,0.00,,---,0.00,0.00,VWS V14.01,2013-04-17 03:02:00,
2013-04-16 22:07:00,35.4,31.9,30.33,NNW,345,6.0,7.0,87,0.00,,---,0.00,0.00,VWS V14.01,2013-04-17 03:07:00,
2013-04-16 22:12:00,35.7,31.9,30.33,NNW,345,7.0,7.0,86,0.00,,---,0.00,0.00,VWS V14.01,2013-04-17 03:12:00,
2013-04-16 22:17:00,35.7,31.9,30.33,NNW,345,3.0,7.0,86,0.00,,---,0.00,0.00,VWS V14.01,2013-04-17 03:17:00,
2013-04-16 22:22:00,35.6,31.8,30.33,NNW,345,5.0,6.0,86,0.00,,---,0.00,0.00,VWS V14.01,2013-04-17 03:22:00,
2013-04-16 22:27:00,35.5,31.7,30.33,NNW,345,3.0,6.0,86,0.00,,---,0.00,0.00,VWS V14.01,2013-04-17 03:27:00,
2013-04-16 22:32:00,35.5,31.7,30.33,NNW,345,5.0,6.0,86,0.00,,---,0.00,0.00,VWS V14.01,2013-04-17 03:32:00,
2013-04-16 22:37:00,35.5,31.7,30.33,NNW,345,3.0,5.0,86,0.00,,---,0.00,0.00,VWS V14.01,2013-04-17 03:37:00,
2013-04-16 22:42:00,35.4,31.6,30.33,NNW,345,7.0,7.0,86,0.00,,---,0.00,0.00,VWS V14.01,2013-04-17 03:42:00,
2013-04-16 22:47:00,35.5,31.7,30.32,NNW,345,5.0,7.0,86,0.00,,---,0.00,0.00,VWS V14.01,2013-04-17 03:47:00,
2013-04-16 22:52:00,35.4,31.6,30.32,NNW,345,0.0,6.0,86,0.00,,---,0.00,0.00,VWS V14.01,2013-04-17 03:52:00,
2013-04-16 22:57:00,35.2,31.4,30.33,NNW,345,1.0,6.0,86,0.00,,---,0.00,0.00,VWS V14.01,2013-04-17 03:57:00,
2013-04-16 23:00:00,35.1,31.3,30.32,NNW,345,4.0,6.0,86,0.00,,---,0.00,0.00,VWS V14.01,2013-04-17 04:00:00,
2013-04-16 23:01:00,35.1,31.0,30.33,NNW,345,4.0,6.0,85,0.00,,---,0.00,0.00,VWS V14.01,2013-04-17 04:01:00,
2013-04-16 23:06:00,35.1,31.0,30.32,NNW,345,4.0,5.0,85,0.00,,---,0.00,0.00,VWS V14.01,2013-04-17 04:06:00,
2013-04-16 23:11:00,35.2,31.1,30.31,NNW,345,1.0,5.0,85,0.00,,---,0.00,0.00,VWS V14.01,2013-04-17 04:11:00,
2013-04-16 23:16:00,35.1,31.3,30.31,NNW,345,2.0,5.0,86,0.00,,---,0.00,0.00,VWS V14.01,2013-04-17 04:16:00,
2013-04-16 23:21:00,35.0,31.2,30.32,NNW,345,0.0,1.0,86,0.00,,---,0.00,0.00,VWS V14.01,2013-04-17 04:21:00,
2013-04-16 23:26:00,35.0,31.0,30.32,NNW,346,3.0,6.0,85,0.00,,---,0.00,0.00,VWS V14.01,2013-04-17 04:26:00,
2013-04-16 23:31:00,35.2,31.1,30.32,NNW,346,0.0,6.0,85,0.00,,---,0.00,0.00,VWS V14.01,2013-04-17 04:31:00,
2013-04-16 23:36:00,35.2,30.9,30.32,NNW,346,1.0,4.0,84,0.00,,---,0.00,0.00,VWS V14.01,2013-04-17 04:36:00,
2013-04-16 23:41:00,35.3,31.0,30.32,NNW,346,2.0,5.0,84,0.00,,---,0.00,0.00,VWS V14.01,2013-04-17 04:41:00,
2013-04-16 23:46:00,35.3,30.7,30.33,NNW,346,0.0,5.0,83,0.00,,---,0.00,0.00,VWS V14.01,2013-04-17 04:46:00,
2013-04-16 23:51:00,35.4,30.8,30.33,NNW,346,0.0,0.0,83,0.00,,---,0.00,0.00,VWS V14.01,2013-04-17 04:51:00,
2013-04-16 23:56:00,35.3,30.7,30.33,NNW,346,0.0,0.0,83,0.00,,---,0.00,0.00,VWS V14.01,2013-04-17 04:56:00,